Wind_Speed
29 28 24 26 28 32 30 28 26 24 21 21 20 17 17 17 16 18 17 15 16 14 15 17 16 16 17 16 17 16 15 13 17 16 16 15 12 10 10 14 14 14 13 14
27 26 30 32 32 32 32 32 31 30 26 25 21 18 17 18 23 14 15 16 15 11 12 15 17 16 21 21 21 19 17 14 15 13 15 17 14 12 8 12 14 13 13 13
27 27 30 32 31 31 31 31 33 33 30 30 25 21 21 23 18 17 16 16 16 18 18 18 21 21 19 21 23 22 20 15 13 13 16 18 17 15 12 10 12 13 13 13
30 32 30 28 30 31 30 32 33 34 30 30 26 25 21 21 18 18 18 16 21 24 21 20 19 24 22 24 24 23 22 19 15 14 17 18 16 15 12 10 9 12 15 14
31 30 30 30 29 31 31 32 34 35 33 27 25 24 24 20 23 24 23 25 23 24 22 21 21 25 25 25 25 25 25 23 20 17 17 16 15 15 15 13 11 10 12 13
33 34 33 32 32 31 35 36 34 33 32 28 25 22 26 28 27 27 23 25 26 23 24 22 25 27 24 22 25 25 23 24 23 20 17 16 15 15 15 13 13 11 9 9
35 35 36 35 35 35 33 34 35 34 33 31 25 23 27 28 27 27 28 25 28 27 27 24 25 23 21 20 18 21 23 22 23 23 19 17 16 17 16 14 14 13 10 7
37 36 37 39 38 36 35 34 32 34 32 29 26 28 28 27 26 27 28 28 27 28 28 29 29 27 25 25 24 22 22 25 25 24 23 20 20 20 19 17 15 14 12 9
38 38 39 39 40 39 38 38 36 33 31 29 31 32 29 29 27 26 28 29 28 28 23 23 27 27 28 27 26 27 27 29 29 28 26 24 22 23 22 21 18 16 15 12
35 36 38 39 40 40 41 39 40 38 35 35 33 32 32 30 29 28 28 27 28 29 24 24 24 27 27 27 28 28 30 31 33 31 29 28 26 25 24 22 21 20 17 14
28 32 36 38 39 39 41 41 41 40 39 39 36 34 31 29 30 31 30 29 28 28 25 26 25 27 29 30 26 26 27 30 31 32 31 30 30 28 26 23 22 22 20 18
26 29 31 33 37 38 39 41 42 41 41 41 39 38 35 33 32 32 33 32 29 26 26 25 22 24 28 32 30 26 24 23 26 33 34 32 32 31 29 27 26 24 21 21
25 28 29 31 33 35 39 40 41 40 41 42 41 40 39 37 37 36 34 35 35 32 29 29 26 29 31 32 31 29 29 27 27 27 30 33 32 32 32 31 30 28 26 24
27 27 29 31 32 33 34 35 37 40 42 43 44 42 42 42 41 40 39 40 39 37 34 34 34 33 32 34 35 35 33 33 31 28 28 30 32 34 34 35 35 33 31 29
30 33 34 34 34 35 36 36 36 37 38 41 43 43 44 44 44 43 44 43 43 43 41 39 37 37 38 36 38 35 37 36 36 35 33 29 30 34 37 36 36 37 36 34
30 29 32 32 32 32 33 34 34 34 35 36 38 39 40 43 44 45 46 46 46 47 47 45 44 42 40 44 41 40 39 40 41 41 35 33 33 31 32 37 38 38 38 38
27 30 29 30 31 33 34 35 35 35 35 36 38 38 40 42 43 43 44 45 46 48 49 50 49 47 46 41 46 45 44 40 42 45 44 40 37 35 33 33 34 39 38 39
24 24 24 26 28 31 32 31 32 35 36 37 38 38 39 42 43 43 44 47 48 47 51 52 53 53 51 47 43 50 50 47 45 44 47 47 41 39 37 35 32 34 40 40
27 29 30 30 30 29 27 26 29 30 31 31 33 34 36 39 42 45 48 49 51 52 51 54 56 56 55 54 50 48 56 55 48 47 46 47 49 46 45 41 37 36 37 38
21 22 23 26 30 35 35 34 32 31 32 34 35 36 39 41 43 46 47 51 53 56 56 54 57 60 60 59 57 53 54 58 55 50 47 49 46 45 47 48 44 42 39 38
20 21 23 25 26 28 33 36 37 36 36 36 36 36 37 42 45 47 51 53 57 60 62 62 58 61 64 64 63 60 58 59 60 58 56 53 52 52 50 47 52 49 45 43
21 21 22 24 25 28 28 30 32 34 34 34 34 34 40 44 47 50 55 60 62 62 66 68 66 64 67 68 68 68 67 64 65 63 62 61 58 58 57 56 52 53 51 47
12 15 17 18 17 18 18 20 23 27 30 33 38 41 43 45 48 49 48 53 61 65 63 69 75 73 70 71 73 74 74 72 68 68 68 68 63 62 58 58 50 50 54 52
10 10 10 11 12 13 13 12 13 11 10 13 18 25 30 36 43 48 50 50 51 58 61 65 72 80 79 76 77 76 78 76 75 72 71 70 67 61 54 46 49 57 57 57
13 13 13 13 11 12 13 14 13 14 17 19 23 26 27 29 31 36 46 50 51 53 57 58 59 73 85 85 81 81 79 81 79 75 69 67 69 65 61 57 54 54 64 61
21 21 20 21 21 22 22 22 23 25 26 26 25 29 33 36 39 37 34 41 45 45 49 51 54 64 73 86 87 83 84 83 83 80 77 65 65 69 66 62 58 61 55 60
Wind_Direction
215 214 213 210 208 212 213 216 216 214 199 199 197 197 203 208 215 198 195 181 179 182 195 192 190 177 172 175 169 168 171 170 169 161 151 146 138 129 127 115 105 102 96 97
214 209 207 207 205 208 210 213 218 221 210 207 199 193 205 200 211 205 218 213 202 193 194 194 187 185 180 186 177 171 179 177 176 170 155 150 145 144 143 128 122 115 111 110
208 209 211 210 207 206 209 211 218 222 215 214 199 198 200 205 216 220 227 228 220 210 190 198 186 190 191 190 185 178 184 181 181 175 167 161 157 150 149 141 129 127 127 117
206 209 211 210 208 206 208 212 216 221 220 213 206 195 201 201 197 212 219 220 208 201 204 201 202 187 191 197 191 185 186 185 179 184 179 175 164 153 153 154 149 142 137 129
211 211 212 211 207 207 206 212 216 220 223 215 204 197 195 195 191 196 195 196 189 199 201 201 199 197 198 196 193 191 193 188 181 188 192 184 173 162 167 163 165 165 143 138
209 211 209 206 206 205 206 211 216 221 227 224 206 204 195 200 198 200 204 200 196 196 199 203 198 202 202 204 197 190 196 195 187 190 198 189 178 182 180 176 174 180 170 148
209 210 210 209 208 206 208 209 215 219 221 224 220 208 204 200 200 200 207 210 209 200 201 201 206 212 206 203 204 198 194 202 201 197 200 197 191 196 194 190 187 187 192 178
213 210 211 211 210 211 211 211 214 221 222 217 218 215 212 209 210 205 204 209 214 217 209 204 202 206 205 201 195 198 205 204 207 205 206 204 199 206 203 199 201 194 187 195
213 212 212 213 214 210 213 210 212 218 219 216 213 219 212 213 216 213 212 210 211 213 214 216 217 207 201 205 202 195 200 205 210 208 209 212 206 208 208 204 204 199 193 192
217 213 213 214 215 213 213 212 212 217 217 219 218 218 215 216 219 220 220 215 210 210 212 216 215 208 206 205 206 204 200 204 209 214 208 213 212 212 212 211 210 207 202 194
215 215 217 215 215 214 211 212 213 217 219 221 224 225 222 220 220 227 229 225 219 217 210 211 221 212 211 212 213 211 204 201 211 219 214 214 216 215 215 216 220 217 210 207
208 214 216 218 219 218 214 212 216 217 222 222 224 226 228 228 228 227 228 232 233 230 227 207 215 222 224 222 220 214 216 211 204 213 219 214 218 220 217 216 219 222 220 218
209 209 213 219 220 220 220 218 219 220 224 225 228 229 229 227 227 231 230 231 233 236 231 229 218 222 217 226 227 221 216 213 215 210 214 219 220 221 222 220 220 222 221 221
216 218 216 218 222 225 224 222 220 220 222 226 228 230 232 233 230 228 230 230 234 233 233 232 229 226 223 216 221 226 227 227 223 220 220 218 218 222 224 224 225 223 223 223
214 219 223 223 223 224 226 225 222 221 223 226 228 229 230 232 233 232 231 230 229 234 232 230 230 225 224 234 222 222 230 234 239 235 229 225 221 222 225 226 230 229 227 226
221 228 228 230 233 232 232 233 233 233 229 230 232 234 234 235 235 232 233 232 233 232 234 233 229 229 226 222 228 234 232 234 238 239 233 233 232 226 228 229 230 235 235 232
217 221 223 226 230 232 232 231 231 232 234 236 234 235 236 238 239 240 237 234 231 231 231 232 233 232 229 222 221 227 234 233 234 238 240 237 234 236 236 236 236 236 237 238
214 222 221 223 225 228 230 230 230 230 231 233 237 240 239 240 241 241 243 239 235 230 230 230 231 231 232 228 220 222 229 235 230 236 241 237 235 237 239 243 245 241 239 237
232 236 238 238 233 231 228 229 233 233 232 233 236 238 241 243 245 245 243 244 241 238 231 231 231 230 230 230 226 223 224 231 231 233 238 238 239 237 236 237 241 243 242 242
239 240 239 241 239 237 236 237 235 234 234 236 237 240 242 244 245 247 246 244 245 242 240 233 233 232 231 230 229 225 225 227 233 232 234 232 235 242 242 239 237 238 241 242
245 243 241 238 236 236 237 239 239 240 238 239 241 244 247 246 246 248 250 249 249 248 243 240 234 233 233 231 230 228 225 226 230 235 234 233 238 240 240 242 241 238 239 243
244 244 243 243 241 239 239 242 241 238 238 237 239 254 262 255 251 253 254 254 252 249 251 246 240 234 232 232 230 228 228 229 228 232 238 239 237 238 237 241 241 235 237 242
249 247 245 237 234 232 228 233 237 243 247 251 255 262 263 259 259 258 256 254 251 250 244 248 247 241 234 231 230 229 229 230 229 229 232 240 241 242 245 237 240 243 236 240
262 256 246 227 218 211 204 208 215 226 257 275 284 283 277 270 264 259 258 258 256 254 250 249 247 242 240 234 230 229 229 230 231 232 233 235 241 242 241 228 235 244 241 239
281 271 257 249 253 245 247 255 264 269 275 282 289 294 295 290 289 279 264 259 260 255 251 253 257 246 236 234 231 229 228 228 230 233 233 238 239 239 237 237 241 244 243 238
262 267 267 267 265 263 267 270 272 273 273 277 287 293 293 297 296 293 288 269 260 252 250 254 263 256 241 232 229 228 226 227 228 231 229 232 239 240 239 236 241 241 236 239
Height
5837 5844 5851 5854 5857 5860 5865 5869 5873 5876 5883 5887 5889 5892 5897 5898 5898 5900 5901 5904 5906 5909 5912 5914 5916 5918 5920 5924 5925 5928 5932 5933 5934 5934 5936 5939 5941 5943 5944 5943 5941 5942 5942 5943
5834 5839 5842 5846 5851 5856 5860 5864 5868 5871 5878 5882 5886 5891 5894 5897 5897 5898 5900 5902 5905 5908 5912 5914 5916 5917 5918 5922 5924 5927 5931 5934 5935 5935 5937 5938 5941 5944 5946 5945 5944 5944 5945 5945
5828 5834 5836 5842 5848 5853 5857 5860 5864 5867 5873 5878 5883 5887 5891 5894 5898 5899 5901 5902 5904 5906 5908 5912 5915 5915 5918 5921 5923 5925 5929 5933 5936 5936 5937 5938 5939 5942 5946 5947 5947 5947 5948 5947
5821 5826 5832 5837 5843 5849 5853 5856 5859 5862 5868 5874 5880 5885 5887 5893 5896 5899 5899 5900 5900 5903 5906 5910 5913 5915 5917 5919 5921 5923 5928 5931 5935 5938 5938 5939 5940 5942 5945 5948 5949 5950 5950 5950
5816 5821 5827 5832 5838 5843 5849 5850 5854 5857 5862 5870 5877 5882 5886 5889 5892 5893 5896 5898 5899 5900 5902 5906 5910 5913 5915 5918 5920 5922 5926 5930 5932 5936 5938 5940 5942 5943 5945 5948 5950 5952 5952 5952
5807 5814 5820 5826 5831 5837 5841 5845 5850 5855 5859 5866 5872 5878 5881 5883 5887 5890 5894 5896 5897 5898 5900 5902 5905 5908 5913 5916 5918 5919 5923 5927 5929 5933 5937 5939 5942 5944 5946 5947 5950 5953 5954 5953
5799 5807 5813 5819 5825 5830 5836 5841 5845 5851 5854 5861 5867 5873 5874 5878 5882 5887 5891 5894 5896 5896 5898 5901 5903 5907 5911 5915 5918 5919 5920 5924 5928 5930 5934 5937 5940 5943 5946 5948 5949 5952 5954 5956
5792 5800 5805 5811 5818 5825 5830 5836 5842 5845 5850 5858 5862 5865 5868 5873 5877 5882 5886 5889 5892 5896 5897 5898 5899 5902 5906 5910 5912 5916 5920 5920 5925 5928 5932 5935 5938 5941 5944 5947 5949 5950 5952 5955
5785 5791 5798 5804 5810 5818 5823 5828 5835 5840 5846 5852 5856 5858 5864 5867 5872 5876 5881 5885 5888 5892 5895 5897 5899 5901 5902 5906 5909 5912 5915 5918 5921 5924 5928 5933 5937 5939 5942 5945 5948 5950 5950 5952
5780 5786 5791 5797 5803 5810 5815 5823 5827 5833 5840 5844 5849 5853 5857 5863 5867 5871 5875 5880 5884 5888 5890 5893 5896 5899 5902 5904 5905 5907 5910 5914 5916 5920 5924 5929 5934 5936 5939 5942 5945 5948 5949 5950
5774 5781 5787 5791 5795 5802 5809 5814 5820 5827 5833 5838 5844 5847 5854 5858 5863 5866 5871 5875 5880 5883 5887 5890 5892 5895 5897 5900 5904 5905 5907 5909 5913 5916 5919 5924 5929 5933 5936 5939 5942 5944 5947 5948
5769 5774 5780 5785 5790 5795 5802 5808 5814 5820 5826 5830 5836 5842 5847 5852 5857 5862 5865 5870 5874 5879 5883 5886 5888 5890 5894 5897 5900 5904 5906 5908 5909 5912 5915 5918 5923 5928 5932 5935 5937 5940 5943 5946
5765 5769 5774 5779 5785 5789 5795 5802 5808 5815 5819 5823 5830 5834 5839 5845 5851 5855 5859 5863 5867 5872 5877 5881 5884 5886 5888 5892 5896 5899 5901 5904 5905 5907 5910 5913 5917 5922 5926 5930 5932 5935 5937 5941
5762 5765 5769 5773 5779 5784 5789 5794 5800 5806 5811 5815 5819 5825 5830 5835 5841 5846 5850 5855 5859 5864 5868 5873 5877 5881 5883 5886 5889 5893 5896 5900 5902 5904 5906 5909 5912 5916 5919 5923 5926 5928 5932 5936
5757 5760 5763 5766 5771 5775 5780 5785 5791 5797 5802 5805 5809 5815 5820 5824 5829 5835 5839 5844 5850 5854 5859 5863 5867 5872 5877 5880 5882 5885 5889 5893 5896 5898 5901 5904 5906 5908 5911 5916 5920 5922 5926 5929
5751 5755 5758 5762 5765 5769 5774 5778 5784 5788 5793 5797 5801 5805 5810 5813 5817 5823 5828 5834 5839 5844 5848 5853 5857 5861 5866 5871 5875 5878 5881 5884 5887 5892 5895 5898 5901 5902 5906 5909 5912 5916 5920 5923
5745 5748 5752 5755 5758 5761 5766 5770 5775 5779 5783 5786 5790 5796 5799 5802 5805 5810 5816 5821 5826 5831 5835 5840 5845 5850 5855 5860 5865 5869 5872 5876 5880 5884 5887 5891 5893 5897 5900 5903 5906 5910 5914 5917
5740 5743 5746 5749 5752 5754 5759 5762 5766 5770 5774 5777 5780 5784 5788 5792 5795 5799 5802 5807 5812 5818 5822 5826 5832 5837 5842 5848 5853 5858 5862 5866 5871 5874 5877 5882 5886 5889 5893 5897 5901 5904 5905 5909
5735 5737 5739 5742 5745 5749 5752 5756 5759 5762 5766 5768 5771 5775 5777 5780 5783 5786 5790 5793 5798 5803 5810 5814 5818 5824 5828 5834 5841 5845 5851 5854 5860 5865 5867 5872 5876 5880 5883 5888 5892 5896 5899 5901
5727 5729 5732 5734 5737 5739 5743 5747 5750 5753 5757 5759 5761 5763 5766 5768 5771 5772 5776 5780 5783 5788 5793 5801 5805 5809 5815 5820 5826 5832 5838 5844 5848 5853 5858 5861 5866 5869 5873 5877 5882 5886 5890 5893
5720 5722 5723 5725 5727 5730 5732 5735 5739 5743 5749 5748 5751 5753 5755 5758 5760 5762 5763 5767 5770 5772 5778 5784 5790 5795 5799 5805 5811 5816 5822 5829 5834 5839 5845 5849 5853 5858 5862 5866 5871 5876 5880 5883
5713 5714 5715 5717 5719 5723 5725 5728 5732 5733 5735 5738 5740 5742 5744 5745 5746 5748 5749 5750 5753 5758 5759 5764 5772 5778 5782 5788 5795 5801 5806 5813 5819 5826 5831 5835 5840 5844 5850 5854 5858 5864 5869 5873
5710 5710 5711 5713 5714 5715 5718 5721 5723 5725 5726 5728 5729 5728 5729 5729 5729 5731 5732 5732 5733 5736 5741 5744 5750 5758 5764 5769 5775 5782 5788 5795 5802 5809 5815 5820 5826 5832 5836 5842 5846 5851 5857 5862
5706 5706 5706 5708 5709 5710 5712 5714 5716 5716 5716 5716 5716 5716 5716 5715 5714 5713 5714 5714 5715 5716 5718 5724 5728 5734 5742 5748 5755 5763 5769 5777 5784 5791 5798 5803 5811 5817 5824 5826 5833 5838 5843 5850
5701 5701 5702 5703 5704 5706 5707 5707 5707 5707 5708 5708 5708 5707 5705 5704 5701 5699 5698 5697 5696 5697 5697 5701 5705 5709 5716 5722 5732 5741 5749 5756 5764 5771 5780 5786 5793 5800 5808 5813 5819 5824 5827 5835
5694 5694 5695 5695 5696 5697 5698 5698 5698 5698 5698 5698 5697 5696 5693 5692 5688 5686 5682 5680 5679 5678 5679 5684 5684 5684 5689 5698 5706 5716 5727 5735 5744 5752 5760 5770 5777 5783 5792 5798 5805 5809 5810 5818